period_start,C,m1,H,J0,J1,J2,J3,J4,J5,JA,JB,JC,JD,JJ,JK,JN,#
2013-12-25 00:00:34,0.37,6.96,0.00,27.77,29.49,32.11,5.93,31.17,1025.43,2027.91,1625.12,1884.08,2055.00,350.26,322.05,34.62,0000 0000 0000 0000 000000
2013-12-25 00:01:34,0.23,6.96,0.00,27.78,29.49,32.10,5.79,31.17,1025.45,2027.91,1624.89,1884.02,2054.61,349.07,320.84,34.63,0000 0000 0000 0000 000000
2013-12-25 00:02:34,0.27,6.96,0.00,27.78,29.48,32.10,5.97,31.00,1025.47,2027.91,1624.39,1883.89,2054.25,350.00,321.60,34.63,0000 0000 0000 0000 000000
2013-12-25 00:03:35,0.42,6.96,0.00,27.80,29.48,32.08,6.03,31.13,1025.54,2027.92,1624.14,1883.42,2054.09,350.06,321.64,34.64,0000 0000 0000 0000 000000
2013-12-25 00:04:35,0.36,6.97,0.00,27.80,29.47,32.07,5.87,30.96,1025.52,2027.93,1624.03,1883.16,2054.03,349.65,321.43,34.65,0000 0000 0000 0000 000000
2013-12-25 00:05:35,0.19,6.97,0.00,27.78,29.47,32.07,5.74,30.92,1025.56,2027.95,1623.70,1883.06,2053.82,349.07,320.88,34.65,0000 0000 0000 0000 000000
2013-12-25 00:06:36,0.31,6.97,0.00,27.77,29.47,32.09,5.83,31.00,1025.63,2027.96,1623.33,1883.01,2053.40,349.00,320.84,34.66,0000 0000 0000 0000 000000
2013-12-25 00:07:36,0.28,6.97,0.00,27.79,29.47,32.09,6.08,31.08,1025.68,2027.92,1623.15,1882.86,2053.17,350.69,322.31,34.66,0000 0000 0000 0000 000000
2013-12-25 00:08:36,0.19,6.97,0.00,27.79,29.47,32.05,5.93,30.92,1025.65,2027.91,1623.05,1882.62,2053.05,350.13,322.12,34.67,0000 0000 0000 0000 000000
2013-12-25 00:09:36,0.19,6.97,0.00,27.79,29.47,32.07,5.96,30.96,1025.62,2027.94,1623.02,1882.25,2053.01,350.30,321.78,34.68,0000 0000 0000 0000 000000
2013-12-25 00:10:37,0.21,6.97,0.00,27.75,29.47,32.08,5.93,30.96,1025.58,2027.97,1622.91,1882.08,2052.78,349.98,321.63,34.68,0000 0000 0000 0000 000000
2013-12-25 00:11:37,0.24,6.98,0.00,27.78,29.47,32.08,5.97,30.96,1025.60,2027.95,1622.48,1882.03,2052.41,350.41,322.02,34.69,0000 0000 0000 0000 000000
2013-12-25 00:12:37,0.27,6.98,0.00,27.75,29.47,32.08,6.06,30.83,1025.61,2027.94,1622.20,1882.01,2052.16,350.00,321.77,34.69,0000 0000 0000 0000 000000
2013-12-25 00:13:38,0.19,6.98,0.00,27.74,29.47,32.07,6.09,31.00,1025.62,2027.94,1622.09,1881.92,2052.05,350.82,322.44,34.70,0000 0000 0000 0000 000000
2013-12-25 00:14:38,0.13,6.98,0.00,27.75,29.47,32.03,6.00,30.79,1025.59,2027.95,1622.03,1881.61,2051.98,351.36,322.91,34.70,0000 0000 0000 0000 000000
2013-12-25 00:15:38,0.21,6.98,0.00,27.75,29.47,32.07,5.96,30.83,1025.51,2027.88,1621.84,1881.28,2051.85,349.90,321.34,34.71,0000 0000 0000 0000 000000
2013-12-25 00:16:38,0.26,6.98,0.00,27.74,29.47,32.04,5.88,31.04,1025.46,2027.90,1621.43,1881.10,2051.52,349.89,321.69,34.72,0000 0000 0000 0000 000000
2013-12-25 00:17:39,0.35,6.98,0.00,27.73,29.47,32.05,5.70,30.75,1025.44,2027.90,1621.16,1881.04,2051.21,348.94,321.00,34.72,0000 0000 0000 0000 000000
2013-12-25 00:18:39,0.23,6.98,0.00,27.73,29.47,32.08,5.90,30.75,1025.43,2027.92,1621.05,1881.00,2051.07,349.64,321.34,34.73,0000 0000 0000 0000 000000
2013-12-25 00:19:39,0.14,6.99,0.00,27.74,29.47,32.03,5.90,31.00,1025.41,2027.94,1621.01,1880.89,2051.02,350.20,321.77,34.73,0000 0000 0000 0000 000000
2013-12-25 00:20:39,0.11,6.99,0.00,27.72,29.47,32.07,5.66,30.83,1025.44,2027.94,1620.69,1880.56,2050.97,348.86,320.60,34.74,0000 0000 0000 0000 000000
2013-12-25 00:21:39,0.34,6.99,0.00,27.73,29.47,32.06,5.84,30.88,1025.42,2027.94,1620.27,1880.23,2050.81,350.76,322.86,34.75,0000 0000 0000 0000 000000
2013-12-25 00:22:40,0.35,6.99,0.00,27.73,29.47,32.05,5.95,30.92,1025.42,2027.90,1620.10,1880.08,2050.39,349.97,321.59,34.75,0000 0000 0000 0000 000000
2013-12-25 00:23:40,0.24,6.99,0.00,27.74,29.46,32.05,6.02,31.04,1025.42,2027.89,1620.03,1880.03,2050.15,350.30,321.83,34.76,0000 0000 0000 0000 000000
2013-12-25 00:24:40,0.13,6.99,0.00,27.75,29.46,32.04,5.77,30.88,1025.41,2027.94,1619.76,1880.00,2050.05,349.44,321.33,34.76,0000 0000 0000 0000 000000
2013-12-25 00:25:40,0.24,6.99,0.00,27.73,29.45,32.07,5.85,30.92,1025.44,2027.96,1619.30,1879.94,2050.01,350.41,322.00,34.77,0000 0000 0000 0000 000000
2013-12-25 00:26:41,0.26,7.00,0.00,27.69,29.45,32.05,5.85,30.88,1025.42,2027.97,1619.10,1879.65,2049.96,349.66,321.36,34.78,0000 0000 0000 0000 000000
2013-12-25 00:27:41,0.26,7.00,0.00,27.71,29.45,32.03,6.16,30.96,1025.41,2027.97,1619.03,1879.28,2049.71,351.61,323.13,34.78,0000 0000 0000 0000 000000
2013-12-25 00:28:41,0.28,7.00,0.00,27.72,29.45,31.98,5.96,30.83,1025.41,2027.98,1619.00,1879.10,2049.34,350.24,321.86,34.79,0000 0000 0000 0000 000000
2013-12-25 00:29:41,0.20,7.00,0.00,27.74,29.45,32.00,5.91,30.96,1025.41,2027.98,1618.89,1879.04,2049.12,349.81,321.33,34.79,0000 0000 0000 0000 000000
2013-12-25 00:30:41,0.15,7.00,0.00,27.74,29.45,32.03,6.02,31.00,1025.42,2027.96,1618.55,1879.00,2049.03,350.24,321.85,34.80,0000 0000 0000 0000 000000
2013-12-25 00:31:42,0.19,7.00,0.00,27.73,29.45,32.04,5.86,30.67,1025.41,2027.96,1618.20,1878.94,2048.97,349.96,321.59,34.80,0000 0000 0000 0000 000000
2013-12-25 00:32:42,0.19,7.00,0.00,27.72,29.45,32.04,6.12,30.92,1025.41,2027.98,1618.07,1878.70,2048.87,351.03,322.60,34.81,0000 0000 0000 0000 000000
2013-12-25 00:33:42,0.26,7.00,0.00,27.72,29.45,32.05,5.98,30.92,1025.41,2027.98,1617.98,1878.32,2048.43,350.11,321.54,34.82,0000 0000 0000 0000 000000
2013-12-25 00:34:43,0.31,7.01,0.00,27.73,29.45,32.03,6.06,30.92,1025.41,2027.97,1617.71,1878.12,2048.18,351.64,323.14,34.82,0000 0000 0000 0000 000000
2013-12-25 00:35:43,0.31,7.01,0.00,27.72,29.45,32.07,5.92,30.88,1025.41,2027.97,1617.29,1878.04,2048.05,349.89,321.54,34.83,0000 0000 0000 0000 000000
2013-12-25 00:36:43,0.25,7.01,0.00,27.74,29.45,32.06,5.96,30.83,1025.41,2027.95,1617.10,1877.99,2047.92,349.97,321.60,34.83,0000 0000 0000 0000 000000
2013-12-25 00:37:43,0.14,7.01,0.00,27.72,29.45,32.05,5.97,30.71,1025.41,2027.97,1617.00,1877.79,2047.51,350.62,321.94,34.84,0000 0000 0000 0000 000000
2013-12-25 00:38:44,0.29,7.01,0.00,27.71,29.45,32.05,5.98,30.71,1025.41,2027.98,1616.56,1877.33,2047.18,350.33,321.95,34.85,0000 0000 0000 0000 000000
2013-12-25 00:39:44,0.49,7.02,0.00,27.72,29.45,32.02,6.15,31.00,1025.41,2027.96,1616.21,1877.12,2047.06,350.80,322.38,34.85,0000 0000 0000 0000 000000
2013-12-25 00:40:44,0.25,7.02,0.00,27.71,29.45,32.06,5.97,30.96,1025.41,2027.97,1615.84,1877.01,2047.02,349.87,321.46,34.86,0000 0000 0000 0000 000000
2013-12-25 00:41:45,0.30,7.02,0.00,27.71,29.45,32.05,5.92,30.96,1025.41,2027.99,1615.33,1876.74,2047.00,350.18,322.04,34.86,0000 0000 0000 0000 000000
2013-12-25 00:42:45,0.35,7.02,0.00,27.71,29.44,32.02,5.82,30.83,1025.41,2027.98,1615.14,1876.41,2046.94,349.68,321.52,34.87,0000 0000 0000 0000 000000
2013-12-25 00:43:45,0.28,7.02,0.00,27.68,29.44,32.00,5.92,30.83,1025.41,2027.99,1615.06,1876.20,2046.60,349.66,321.38,34.87,0000 0000 0000 0000 000000
2013-12-25 00:44:45,0.23,7.02,0.00,27.71,29.44,32.00,5.82,30.83,1025.41,2027.98,1615.01,1876.08,2046.24,350.31,321.94,34.88,0000 0000 0000 0000 000000
2013-12-25 00:45:46,0.16,7.02,0.00,27.71,29.43,32.02,5.88,30.71,1025.41,2027.99,1614.76,1876.03,2046.08,350.25,321.82,34.89,0000 0000 0000 0000 000000
2013-12-25 00:46:46,0.22,7.03,0.00,27.72,29.43,32.05,6.17,30.88,1025.41,2027.99,1614.32,1875.98,2046.03,351.00,322.69,34.89,0000 0000 0000 0000 000000
2013-12-25 00:47:46,0.21,7.03,0.00,27.71,29.42,32.04,6.11,30.79,1025.41,2027.99,1614.11,1875.84,2045.97,351.17,322.87,34.90,0000 0000 0000 0000 000000
2013-12-25 00:48:46,0.19,7.03,0.00,27.68,29.42,32.00,5.97,30.79,1025.41,2027.99,1614.04,1875.42,2045.60,349.22,321.27,34.90,0000 0000 0000 0000 000000
2013-12-25 00:49:47,0.33,7.03,0.00,27.67,29.42,32.02,6.08,30.75,1025.41,2027.99,1613.87,1875.17,2045.24,350.62,322.38,34.91,0000 0000 0000 0000 000000
2013-12-25 00:50:47,0.32,7.03,0.00,27.66,29.42,31.98,6.14,30.83,1025.41,2027.98,1613.38,1875.06,2045.09,351.26,323.07,34.92,0000 0000 0000 0000 000000
2013-12-25 00:51:47,0.29,7.03,0.00,27.66,29.42,31.98,6.04,30.83,1025.41,2027.99,1613.12,1875.01,2045.03,350.33,322.01,34.92,0000 0000 0000 0000 000000
2013-12-25 00:52:47,0.17,7.04,0.00,27.67,29.42,31.97,6.09,30.71,1025.41,2027.99,1613.01,1874.95,2045.00,351.04,322.66,34.93,0000 0000 0000 0000 000000
2013-12-25 00:53:47,0.07,7.04,0.00,27.67,29.42,31.98,6.02,30.63,1025.41,2027.99,1612.85,1874.75,2044.75,349.35,321.09,34.93,0000 0000 0000 0000 000000
2013-12-25 00:54:48,0.31,7.04,0.00,27.67,29.42,32.02,6.13,30.92,1025.41,2027.99,1612.41,1874.33,2044.33,351.82,323.37,34.94,0000 0000 0000 0000 000000
2013-12-25 00:55:48,0.49,7.04,0.00,27.66,29.42,32.01,6.03,30.79,1025.41,2027.99,1612.15,1874.12,2044.12,350.33,322.01,34.95,0000 0000 0000 0000 000000
2013-12-25 00:56:48,0.27,7.04,0.00,27.65,29.42,31.99,5.89,30.63,1025.41,2027.99,1612.05,1874.04,2044.04,349.51,321.14,34.95,0000 0000 0000 0000 000000
2013-12-25 00:57:48,0.10,7.04,0.00,27.67,29.42,32.02,5.94,30.75,1025.41,2027.99,1611.82,1873.98,2043.97,349.69,320.95,34.96,0000 0000 0000 0000 000000
2013-12-25 00:58:48,0.18,7.04,0.00,27.69,29.42,32.03,5.81,30.71,1025.41,2027.99,1611.34,1873.82,2043.75,349.91,321.60,34.96,0000 0000 0000 0000 000000
2013-12-25 00:59:49,0.37,7.05,0.00,27.68,29.42,32.03,6.10,30.88,1025.41,2027.99,1611.12,1873.39,2043.38,350.96,322.56,34.97,0000 0000 0000 0000 000000
2013-12-25 01:00:49,0.41,7.05,0.00,27.68,29.41,32.01,4.78,22.50,1025.41,2027.99,1611.03,1873.16,2043.16,278.46,245.95,34.97,0000 0000 0000 0000 000009
2013-12-25 01:01:49,0.41,2.35,0.00,27.68,29.42,31.96,3.83,19.75,1025.41,2030.78,2918.40,2842.15,3093.28,220.83,202.96,0.00,0000 0000 0000 0000 000002
2013-12-25 01:02:49,0.41,0.00,0.00,27.68,29.42,31.95,6.09,30.38,1025.41,2032.45,3570.06,3325.82,3618.36,350.42,322.07,0.00,0000 0000 0000 0000 000002
2013-12-25 01:03:50,0.41,0.00,0.00,27.72,29.42,31.95,5.94,29.88,1025.41,2032.66,3568.36,3325.17,3617.76,350.48,322.09,0.01,0000 0000 0000 0000 000002
2013-12-25 01:04:50,0.41,0.00,0.00,27.71,29.42,32.00,5.69,29.75,1025.41,2032.75,3567.07,3324.48,3617.12,348.06,319.88,0.00,0000 0000 0000 0000 000000
2013-12-25 01:05:50,0.41,0.00,0.00,27.69,29.41,31.97,5.95,29.79,1025.41,2032.70,3565.94,3324.00,3616.42,349.43,321.16,0.00,0000 0000 0000 0000 000000
2013-12-25 01:06:51,0.41,0.00,0.00,27.68,29.40,31.95,5.87,29.79,1025.41,2032.67,3565.09,3323.41,3615.93,349.78,321.48,0.01,0000 0000 0000 0000 000000
2013-12-25 01:07:51,0.40,0.00,0.00,27.69,29.40,31.97,6.03,29.67,1025.41,2032.68,3564.26,3322.98,3615.28,350.69,322.31,0.01,0000 0000 0000 0000 000000
2013-12-25 01:08:51,0.40,0.00,0.00,27.68,29.40,31.95,5.79,29.92,1025.41,2032.69,3563.50,3322.43,3614.59,349.64,321.36,0.02,0000 0000 0000 0000 000000
2013-12-25 01:09:51,0.40,0.00,0.00,27.68,29.40,31.96,5.96,29.71,1025.41,2032.51,3562.89,3322.07,3613.93,350.57,322.21,0.03,0000 0000 0000 0000 000000
2013-12-25 01:10:52,0.39,0.00,0.00,27.68,29.40,31.95,6.03,29.63,1025.41,2032.44,3562.14,3321.51,3613.34,350.35,322.01,0.03,0000 0000 0000 0000 000000
2013-12-25 01:11:52,0.39,0.00,0.00,27.64,29.40,31.94,6.07,29.83,1025.41,2032.48,3561.42,3321.15,3612.85,350.15,321.87,0.04,0000 0000 0000 0000 000000
2013-12-25 01:12:52,0.39,0.00,0.00,27.64,29.40,31.94,6.07,29.83,1025.41,2032.46,3560.71,3320.59,3612.29,350.53,322.21,0.04,0000 0000 0000 0000 000000
2013-12-25 01:13:52,0.39,0.01,0.00,27.66,29.40,31.94,6.03,29.88,1025.41,2032.44,3560.06,3320.20,3611.70,350.95,322.58,0.05,0000 0000 0000 0000 000000
2013-12-25 01:14:52,0.38,0.01,0.00,27.66,29.40,31.94,5.90,29.79,1025.41,2032.31,3559.34,3319.73,3611.18,349.63,321.37,0.05,0000 0000 0000 0000 000000
2013-12-25 01:15:53,0.36,0.01,0.00,27.65,29.40,31.95,5.94,29.79,1025.41,2032.18,3558.58,3319.26,3610.54,349.95,321.67,0.06,0000 0000 0000 0000 000000
2013-12-25 01:16:53,0.36,0.01,0.00,27.66,29.40,31.95,5.96,29.75,1025.41,2032.13,3557.88,3318.80,3610.05,350.25,321.93,0.07,0000 0000 0000 0000 000000
2013-12-25 01:17:53,0.35,0.01,0.00,27.68,29.39,31.94,5.96,30.13,1025.41,2032.08,3557.09,3318.28,3609.43,349.65,321.31,0.07,0000 0000 0000 0000 000000
2013-12-25 01:18:53,0.34,0.01,0.00,27.67,29.39,31.97,6.03,29.96,1025.41,2032.07,3556.34,3317.73,3608.96,350.88,322.51,0.08,0000 0000 0000 0000 000000
2013-12-25 01:19:53,0.34,0.01,0.00,27.64,29.38,32.01,5.93,29.71,1025.41,2032.19,3555.59,3317.27,3608.38,348.94,320.80,0.08,0000 0000 0000 0000 000000
2013-12-25 01:20:54,0.35,0.02,0.00,27.62,29.38,32.00,5.86,29.75,1025.40,2032.29,3554.88,3316.91,3608.01,349.75,321.97,0.09,0000 0000 0000 0000 000000
2013-12-25 01:21:54,0.34,0.02,0.00,27.59,29.37,32.00,5.86,29.71,1025.40,2032.42,3554.24,3316.37,3607.44,350.02,321.38,0.10,0000 0000 0000 0000 000000
2013-12-25 01:22:54,0.34,0.02,0.00,27.60,29.37,31.97,5.91,29.79,1025.40,2032.39,3553.53,3315.99,3606.97,351.01,321.92,0.10,0000 0000 0000 0000 000000
2013-12-25 01:23:54,0.32,0.02,0.00,27.61,29.37,31.98,5.93,29.58,1025.40,2032.33,3552.87,3315.43,3606.37,350.28,322.27,0.11,0000 0000 0000 0000 000000
2013-12-25 01:24:55,0.31,0.02,0.00,27.62,29.37,31.95,5.93,29.63,1025.40,2032.46,3552.28,3315.13,3605.95,349.62,321.58,0.11,0000 0000 0000 0000 000000
2013-12-25 01:25:55,0.32,0.02,0.00,27.63,29.37,31.94,5.96,29.54,1025.40,2032.63,3551.60,3314.59,3605.41,350.72,322.46,0.12,0000 0000 0000 0000 000000
2013-12-25 01:26:55,0.33,0.03,0.00,27.63,29.37,31.94,6.03,29.58,1025.40,2032.65,3550.91,3314.19,3604.98,350.29,322.14,0.13,0000 0000 0000 0000 000000
2013-12-25 01:27:55,0.31,0.03,0.00,27.65,29.37,31.97,5.82,29.50,1025.40,2032.52,3550.14,3313.67,3604.38,350.20,321.90,0.13,0000 0000 0000 0000 000000
2013-12-25 01:28:56,0.27,0.03,0.00,27.67,29.37,31.91,6.08,29.63,1025.40,2032.46,3549.43,3313.23,3603.78,350.67,322.31,0.14,0000 0000 0000 0000 000000
2013-12-25 01:29:56,0.26,0.03,0.00,27.65,29.37,31.93,5.73,29.50,1025.40,2032.48,3548.76,3312.71,3603.21,349.44,321.20,0.14,0000 0000 0000 0000 000000
2013-12-25 01:30:56,0.28,0.03,0.00,27.62,29.37,31.99,5.88,29.75,1025.39,2032.61,3548.19,3312.26,3602.61,350.11,321.84,0.15,0000 0000 0000 0000 000000
2013-12-25 01:31:56,0.29,0.03,0.00,27.61,29.37,31.97,5.95,29.46,1025.39,2032.68,3547.50,3311.88,3602.18,350.07,321.83,0.15,0000 0000 0000 0000 000000
2013-12-25 01:32:57,0.28,0.03,0.00,27.64,29.36,31.98,5.92,29.79,1025.37,2032.65,3546.75,3311.34,3601.59,350.45,322.01,0.16,0000 0000 0000 0000 000000
2013-12-25 01:33:57,0.27,0.04,0.00,27.63,29.36,31.95,5.89,29.58,1025.39,2032.69,3546.07,3310.92,3601.18,349.75,321.19,0.17,0000 0000 0000 0000 000000
2013-12-25 01:34:57,0.28,0.04,0.00,27.63,29.35,31.93,6.22,29.63,1025.40,2032.76,3545.35,3310.36,3600.60,351.28,322.91,0.17,0000 0000 0000 0000 000000
2013-12-25 01:35:57,0.30,0.04,0.00,27.62,29.35,31.96,5.92,29.58,1025.40,2032.76,3544.64,3309.96,3600.20,349.92,321.67,0.18,0000 0000 0000 0000 000000
2013-12-25 01:36:58,0.24,0.04,0.00,27.62,29.35,31.96,5.90,29.33,1025.38,2032.70,3544.00,3309.40,3599.66,349.84,321.59,0.18,0000 0000 0000 0000 000000
2013-12-25 01:37:58,0.23,0.04,0.00,27.61,29.35,31.95,5.86,29.58,1025.38,2032.68,3543.26,3309.02,3599.20,349.92,321.69,0.19,0000 0000 0000 0000 000000
2013-12-25 01:38:58,0.21,0.04,0.00,27.58,29.35,31.95,6.02,29.63,1025.40,2032.79,3542.51,3308.45,3598.64,350.66,322.48,0.20,0000 0000 0000 0000 000000
2013-12-25 01:39:58,0.40,0.05,0.00,27.57,29.35,31.93,5.83,29.33,1025.40,2032.76,3541.88,3308.06,3598.13,350.63,322.38,0.20,0000 0000 0000 0000 000000
2013-12-25 01:40:59,0.17,0.05,0.00,27.57,29.35,31.92,5.93,29.54,1025.40,2032.69,3541.28,3307.46,3597.47,350.56,322.37,0.21,0000 0000 0000 0000 000000
2013-12-25 01:41:59,0.21,0.05,0.00,27.58,29.35,31.94,5.92,29.46,1025.39,2032.65,3540.59,3307.01,3596.89,350.48,322.22,0.21,0000 0000 0000 0000 000000
2013-12-25 01:42:59,0.24,0.05,0.00,27.59,29.35,31.92,5.84,29.67,1025.40,2032.72,3539.97,3306.45,3596.33,349.99,321.77,0.22,0000 0000 0000 0000 000000
2013-12-25 01:43:59,0.31,0.05,0.00,27.60,29.35,31.89,5.94,29.75,1025.40,2032.80,3539.30,3306.09,3595.96,350.54,322.26,0.22,0000 0000 0000 0000 000000
2013-12-25 01:45:00,0.28,0.05,0.00,27.59,29.35,31.90,6.05,29.50,1025.40,2032.83,3538.58,3305.58,3595.38,350.56,322.07,0.23,0000 0000 0000 0000 000000
2013-12-25 01:46:00,0.29,0.06,0.00,27.58,29.35,31.94,5.76,29.42,1025.40,2032.85,3537.91,3305.19,3595.02,349.95,321.55,0.24,0000 0000 0000 0000 000000
2013-12-25 01:47:00,0.21,0.06,0.00,27.58,29.35,31.97,5.77,29.33,1025.40,2032.70,3537.32,3304.74,3594.43,349.83,321.63,0.24,0000 0000 0000 0000 000000
2013-12-25 01:48:00,0.07,0.06,0.00,27.59,29.34,31.95,5.93,29.46,1025.40,2032.58,3536.66,3304.28,3593.84,349.74,321.20,0.25,0000 0000 0000 0000 000000
2013-12-25 01:49:01,0.18,0.06,0.00,27.57,29.34,31.94,5.98,29.50,1025.39,2032.65,3536.03,3303.81,3593.29,350.12,321.91,0.25,0000 0000 0000 0000 000000
2013-12-25 01:50:01,0.32,0.06,0.00,27.56,29.33,31.91,6.06,29.42,1025.38,2032.78,3535.39,3303.33,3592.83,350.31,322.09,0.26,0000 0000 0000 0000 000000
2013-12-25 01:51:01,0.32,0.06,0.00,27.57,29.33,31.92,5.83,29.29,1025.39,2032.82,3534.78,3302.93,3592.31,349.57,321.41,0.27,0000 0000 0000 0000 000000
2013-12-25 01:52:01,0.25,0.06,0.00,27.58,29.33,31.94,5.90,29.46,1025.40,2032.81,3534.22,3302.37,3591.74,350.21,321.98,0.27,0000 0000 0000 0000 000000
2013-12-25 01:53:02,0.26,0.07,0.00,27.59,29.32,31.89,5.87,29.29,1025.39,2032.73,3533.54,3302.03,3591.23,350.46,322.19,0.28,0000 0000 0000 0000 000000
2013-12-25 01:54:02,0.15,0.07,0.00,27.59,29.32,31.89,5.73,29.29,1025.40,2032.69,3532.90,3301.48,3590.64,349.88,321.67,0.28,0000 0000 0000 0000 000000
2013-12-25 01:55:02,0.25,0.07,0.00,27.55,29.32,31.90,5.97,29.58,1025.40,2032.73,3532.24,3301.14,3590.22,350.56,322.33,0.29,0000 0000 0000 0000 000000
2013-12-25 01:56:02,0.25,0.07,0.00,27.58,29.32,31.89,6.08,29.54,1025.40,2032.81,3531.52,3300.59,3589.82,351.24,322.93,0.29,0000 0000 0000 0000 000000
2013-12-25 01:57:03,0.30,0.07,0.00,27.57,29.32,31.88,6.05,29.46,1025.40,2032.80,3530.86,3300.19,3589.33,350.72,322.47,0.30,0000 0000 0000 0000 000000
2013-12-25 01:58:03,0.19,0.07,0.00,27.56,29.32,31.89,6.15,29.67,1025.40,2032.83,3530.30,3299.72,3588.88,350.90,322.64,0.31,0000 0000 0000 0000 000000
2013-12-25 01:59:03,0.27,0.07,0.00,27.59,29.32,31.86,6.08,29.63,1025.40,2032.81,3529.67,3299.27,3588.32,350.54,322.28,0.31,0000 0000 0000 0000 000000
2013-12-25 02:00:03,0.25,0.07,0.00,27.59,29.32,31.88,5.85,29.71,1025.40,2032.80,3529.05,3298.78,3587.76,349.53,321.35,0.32,0000 0000 0000 0000 000000
2013-12-25 02:01:03,0.21,0.08,0.00,27.56,29.32,31.89,6.11,29.75,1025.40,2032.76,3528.40,3298.29,3587.28,350.04,321.84,0.32,0000 0000 0000 0000 000000
2013-12-25 02:02:03,0.24,0.08,0.00,27.57,29.32,31.89,6.11,29.67,1025.40,2032.81,3527.73,3297.93,3586.75,350.53,322.29,0.33,0000 0000 0000 0000 000000
2013-12-25 02:03:04,0.25,0.08,0.00,27.56,29.32,31.88,5.78,29.58,1025.40,2032.84,3527.13,3297.39,3586.26,349.31,321.48,0.34,0000 0000 0000 0000 000000
2013-12-25 02:04:04,0.28,0.08,0.00,27.56,29.31,31.88,5.88,29.67,1025.39,2032.82,3526.43,3297.01,3585.65,349.49,321.97,0.34,0000 0000 0000 0000 000000
2013-12-25 02:05:04,0.21,0.08,0.00,27.55,29.31,31.90,5.89,29.54,1025.40,2032.69,3525.73,3296.43,3585.23,350.60,322.37,0.35,0000 0000 0000 0000 000000
2013-12-25 02:06:04,0.19,0.08,0.00,27.55,29.30,31.88,5.78,29.54,1025.38,2032.71,3525.16,3296.13,3584.72,348.54,320.90,0.35,0000 0000 0000 0000 000000
2013-12-25 02:07:04,0.24,0.08,0.00,27.54,29.30,31.88,6.02,29.79,1025.36,2032.79,3524.47,3295.61,3584.25,348.92,320.82,0.36,0000 0000 0000 0000 000000
2013-12-25 02:08:05,0.30,0.09,0.00,27.54,29.30,31.90,5.97,29.63,1025.36,2032.88,3523.89,3295.22,3583.89,349.79,321.62,0.37,0000 0000 0000 0000 000000
2013-12-25 02:09:05,0.28,0.09,0.00,27.53,29.30,31.89,5.74,29.58,1025.38,2032.90,3523.28,3294.72,3583.36,349.07,320.92,0.37,0000 0000 0000 0000 000000
2013-12-25 02:10:05,0.26,0.09,0.00,27.52,29.30,31.89,5.76,29.50,1025.36,2032.92,3522.59,3294.26,3583.11,350.49,322.36,0.38,0000 0000 0000 0000 000000
2013-12-25 02:11:05,0.21,0.09,0.00,27.52,29.30,31.91,5.80,29.79,1025.33,2032.93,3521.98,3293.84,3582.66,349.90,321.77,0.38,0000 0000 0000 0000 000000
2013-12-25 02:12:06,0.23,0.09,0.00,27.54,29.30,31.92,5.73,29.46,1025.35,2032.90,3521.36,3293.31,3582.24,349.22,321.10,0.39,0000 0000 0000 0000 000000
2013-12-25 02:13:06,0.24,0.09,0.00,27.54,29.30,31.91,5.90,29.88,1025.38,2032.89,3520.69,3292.90,3581.77,350.39,322.19,0.39,0000 0000 0000 0000 000000
2013-12-25 02:14:06,0.19,0.09,0.00,27.53,29.30,31.89,5.81,29.54,1025.35,2032.91,3520.08,3292.36,3581.26,349.53,321.39,0.40,0000 0000 0000 0000 000000
2013-12-25 02:15:06,0.28,0.10,0.00,27.51,29.30,31.89,6.03,29.63,1025.32,2032.92,3519.42,3291.98,3580.75,350.27,322.08,0.41,0000 0000 0000 0000 000000
2013-12-25 02:16:07,0.24,0.10,0.00,27.50,29.30,31.91,5.96,29.71,1025.24,2032.91,3518.93,3291.43,3580.27,350.45,322.24,0.41,0000 0000 0000 0000 000000
2013-12-25 02:17:07,0.22,0.10,0.00,27.48,29.29,31.92,6.13,29.75,1025.27,2032.91,3518.37,3291.13,3579.74,351.19,322.94,0.42,0000 0000 0000 0000 000000
2013-12-25 02:18:07,0.22,0.10,0.00,27.50,29.29,31.90,6.14,29.75,1025.28,2032.93,3517.81,3290.57,3579.25,350.32,322.27,0.42,0000 0000 0000 0000 000000
2013-12-25 02:19:08,0.25,0.10,0.00,27.51,29.28,31.91,5.76,29.63,1025.22,2032.94,3517.16,3290.18,3578.69,349.10,320.98,0.43,0000 0000 0000 0000 000000
2013-12-25 02:20:08,0.24,0.10,0.00,27.49,29.28,31.91,5.79,29.46,1025.27,2032.97,3516.48,3289.63,3578.22,349.07,320.99,0.44,0000 0000 0000 0000 000000
2013-12-25 02:21:08,0.29,0.10,0.00,27.49,29.27,31.87,5.74,29.46,1025.23,2032.96,3515.88,3289.23,3577.62,349.42,321.30,0.44,0000 0000 0000 0000 000000
2013-12-25 02:22:08,0.22,0.11,0.00,27.53,29.27,31.84,5.77,29.33,1025.14,2032.97,3515.29,3288.88,3577.21,349.61,321.34,0.45,0000 0000 0000 0000 000000
2013-12-25 02:23:09,0.20,0.11,0.00,27.52,29.27,31.87,6.03,29.54,1025.14,2032.95,3514.59,3288.35,3576.61,351.06,322.74,0.45,0000 0000 0000 0000 000000
2013-12-25 02:24:09,0.26,0.11,0.00,27.52,29.27,31.83,6.04,29.63,1025.05,2032.98,3514.07,3288.02,3576.19,349.80,321.56,0.46,0000 0000 0000 0000 000000
2013-12-25 02:25:09,0.20,0.11,0.00,27.56,29.27,31.84,5.92,29.54,1025.00,2032.98,3513.43,3287.44,3575.61,350.21,321.88,0.46,0000 0000 0000 0000 000000
2013-12-25 02:26:09,0.29,0.11,0.00,27.52,29.27,31.85,5.99,29.58,1025.01,2032.97,3512.79,3287.05,3575.14,350.31,322.00,0.47,0000 0000 0000 0000 000000
2013-12-25 02:27:10,0.20,0.11,0.00,27.50,29.27,31.88,5.87,29.54,1025.00,2032.96,3512.22,3286.48,3574.50,349.89,321.64,0.48,0000 0000 0000 0000 000000
2013-12-25 02:28:10,0.27,0.11,0.00,27.51,29.27,31.86,5.92,29.71,1024.99,2032.96,3511.55,3286.16,3574.13,350.67,322.25,0.48,0000 0000 0000 0000 000000
2013-12-25 02:29:10,0.20,0.12,0.00,27.49,29.27,31.88,6.02,29.75,1024.99,2032.97,3511.01,3285.70,3573.58,350.52,322.46,0.49,0000 0000 0000 0000 000000
2013-12-25 02:30:10,0.22,0.12,0.00,27.48,29.27,31.86,5.88,29.79,1025.01,2032.95,3510.36,3285.26,3573.18,349.42,320.85,0.49,0000 0000 0000 0000 000000
2013-12-25 02:31:11,0.23,0.12,0.00,27.50,29.26,31.87,6.06,29.63,1025.01,2032.96,3509.64,3284.81,3572.63,349.86,321.63,0.50,0000 0000 0000 0000 000000
2013-12-25 02:32:11,0.24,0.12,0.00,27.49,29.25,31.82,5.86,29.58,1025.02,2032.93,3509.11,3284.31,3572.21,349.96,321.73,0.51,0000 0000 0000 0000 000000
2013-12-25 02:33:11,0.22,0.12,0.00,27.51,29.25,31.78,5.83,29.33,1025.09,2032.95,3508.46,3283.92,3571.61,349.72,321.51,0.51,0000 0000 0000 0000 000000
2013-12-25 02:34:11,0.23,0.12,0.00,27.51,29.25,31.81,6.01,29.75,1025.09,2032.95,3507.91,3283.36,3571.15,349.88,321.66,0.52,0000 0000 0000 0000 000000
2013-12-25 02:35:12,0.23,0.12,0.00,27.48,29.25,31.83,6.06,29.83,1025.04,2032.95,3507.31,3283.02,3570.52,350.48,322.22,0.52,0000 0000 0000 0000 000000
2013-12-25 02:36:12,0.24,0.13,0.00,27.47,29.25,31.81,5.97,29.58,1024.98,2032.96,3506.63,3282.46,3570.18,350.48,322.29,0.53,0000 0000 0000 0000 000000
2013-12-25 02:37:12,0.23,0.13,0.00,27.45,29.25,31.85,6.12,29.58,1025.08,2032.96,3506.06,3282.14,3569.72,350.36,322.15,0.53,0000 0000 0000 0000 000000